Location: Ar Ranvel
(48.3000°N, 4.8833°W)
Time: 03:11:37
(UTC+00:00)

Cosmos 2322 Rocket - Pass Details

Date: 26 October 2021
Orbit: 832 x 851 km, 71.0° (Epoch: 01 December)

Event Time Altitude Azimuth Distance (km) Brightness Sun altitude
Exits shadow 04:33:08 20° 190° (S) 1,876 3.8 -24.3°
Drops below altitude 10° 04:34:52 10° 182° (S) 2,465 4.5 -24.0°
Sets 04:37:24 0° 175° (S) 3,398 5.3 -23.6°
